User: anonymous   Login
Location: Fontevrault
(47.1823°N, 0.0493°E)
Time: 20:46:56
(UTC+00:00)
Language:

Cosmos 292 Rocket - Orbit

View from above orbital plane
View from above orbital plane
View from above satellite
View from above satellite

Ground track
Ground track

The orbit data is extracted from the following two-line orbital elements,

1  4071U 69070B   21265.58010400  .00000159  00000-0  36988-4 0  9991
2  4071  74.0512  16.5353 0015466 313.6727  46.3157 14.62936112765725
Epoch (UTC): 22 September 2021 13:55:20
Eccentricity: 0.0015466
inclination: 74.0512°
perigee height: 673 km
apogee height: 694 km
right ascension of ascending node: 16.5353°
argument of perigee: 313.6727°
revolutions per day: 14.62936112
mean anomaly at epoch: 46.3157°
orbit number at epoch: 76572

The dashed part of the orbit path shows where the satellite is in the earth's shadow,  

DLR